Location: Unspecified
(0.0000°N, 0.0000°E)
Time: 00:10:26
(UTC+02:00)

ARIANE 5 R/B - Visible Passes

Search period start: 22 September 2014 00:00
Search period end: 02 October 2014 00:00
Orbit: 559 x 35662 km, 7.1° (Epoch: 18 September)

Date Brightness Start Highest point End Pass type
(mag) Time Alt. Az. Time Alt. Az. Time Alt. Az.
22 Sep 10.9 00:00:00 28° E 05:34:52 64° E 07:22:35 10° E visible
23 Sep 11.0 00:57:18 10° E 02:36:37 16° E 03:38:19 10° E visible
23 Sep 10.6 06:55:59 13° W 07:33:40 15° W 09:01:45 10° W visible
24 Sep 7.2 02:47:39 10° W 12:34:56 69° N 12:43:02 10° ENE visible
24 Sep 8.2 23:43:30 10° W 05:13:00 89° S 09:45:10 10° E visible
25 Sep 6.0 20:46:06 10° W 20:52:53 70° S 06:39:00 10° E visible
27 Sep 10.6 06:21:00 22° W 06:53:37 23° W 09:31:24 10° W visible
28 Sep 7.6 02:04:42 10° W 11:52:32 71° N 12:02:28 10° ENE visible
28 Sep 8.2 23:02:30 10° W 05:38:12 89° N 09:03:48 10° E visible
29 Sep 5.6 20:05:36 10° W 20:11:15 68° S 05:54:22 10° E visible
01 Oct 9.6 05:45:43 30° W 06:13:12 31° W 09:53:58 10° W visible
